Location: Santaluz Observatory
(32.9930°N, 117.1510°W)
Time: 00:19:05
(UTC-07:00)

Hubble Space Telescope - Visible Passes

Search period start: 19 October 2017 00:00
Search period end: 29 October 2017 00:00
Orbit: 537 x 541 km, 28.5° (Epoch: 18 October)

Date Brightness Start Highest point End Pass type
(mag) Time Alt. Az. Time Alt. Az. Time Alt. Az.
19 Oct 2.8 19:10:11 10° SSW 19:12:37 15° SSE 19:14:05 13° SE visible
20 Oct 2.6 18:59:26 10° SSW 19:02:21 19° SSE 19:04:35 13° ESE visible
20 Oct 3.6 20:39:18 10° WSW 20:39:57 14° WSW 20:39:57 14° WSW visible
21 Oct 2.4 18:48:50 10° SW 18:52:05 22° SSE 18:55:02 11° ESE visible
21 Oct 3.1 20:29:01 10° WSW 20:30:24 19° SW 20:30:24 19° SW visible
22 Oct 2.2 18:38:21 10° SW 18:41:50 26° SSE 18:45:18 10° ESE visible
22 Oct 2.7 20:18:47 10° WSW 20:20:49 26° SW 20:20:49 26° SW visible
23 Oct 2.1 18:27:57 10° SW 18:31:35 30° SSE 18:35:13 10° ESE visible
23 Oct 2.2 20:08:33 10° WSW 20:11:13 33° SW 20:11:13 33° SW visible
24 Oct 1.7 19:58:21 10° WSW 20:01:37 40° SSW 20:01:37 40° SSW visible
25 Oct 1.5 19:48:09 10° WSW 19:52:00 43° S 19:52:00 43° S visible
26 Oct 1.5 19:37:58 10° WSW 19:41:51 40° S 19:42:25 38° SSE visible
27 Oct 1.8 19:27:48 10° WSW 19:31:38 37° S 19:32:52 30° SSE visible
28 Oct 2.0 19:17:39 10° WSW 19:21:24 33° SSW 19:23:22 21° SE visible
